Weather in Spas

Russia / Yaroslavl Oblast     58°12′32″N   39°53′25″E
temp.,
°C
wind,
m/s
gust,
m/s
humid.,
%
clouds,
%
prec.,
mm/h
press.,
hPa
HPBL,
m
15 april, thu
thu1500:00+11nnw258794 0.0 1018122
03:00+9nne4792100 0.0 1019388
06:00+8nne4790100 0.0 1020481
09:00+8nne4786100 0.0 1021539
12:00+9ne5774100 0.0 1022741
15:00+10ne5972100 0.0 1023799
18:00+7ne5117797 0.0 1024720
21:00+7ene51277100 0.0 1026790
16 april, fri
fri1600:00+5ene51283100 0.0 1026666
03:00+4ene51278100 0.0 1027525
06:00+3ene41275100 0.0 1027485
09:00+5ene596051 0.0 1028546
12:00+10ene574522 0.0 1028980
15:00+11ene573650 0.0 10281191
18:00+10ene484758 0.0 1028998
21:00+6ene4126446 0.0 1030374
17 april, sat
sat1700:00+4ene311765 0.0 1030315
03:00+2ene3118357 0.0 1031276
06:00+1ene3118312 0.0 1032280
09:00+7ene49565 0.0 1032632
12:00+10ene56425 0.0 10311189
15:00+12ene46395 0.0 10301403
18:00+10ene47480 0.0 1029758
21:00+5ne39730 0.0 1030203
18 april, sun
sun1800:00+4ne310790 0.0 1030212
03:00+2ne39835 0.0 1030208
06:00+2ne31082100 0.0 1031271
09:00+7ene4759100 0.0 1030566
12:00+10ene4647100 0.0 10301165
15:00+11ene4642100 0.0 10291408
18:00+10ne3754100 0.0 1029560
21:00+6ne31075100 0.0 1030294
19 april, mon
mon1900:00+5ene3981100 0.0 1031396
03:00+3ene3885100 0.0 1032300
06:00+2ene3883100 0.0 1033279
09:00+5e4752100 0.0 1033648
12:00+8e4538100 0.0 10331345
15:00+9e353696 0.0 10321544
18:00+8e2543100 0.0 1031357
21:00+4e256184 0.0 103298